Northolt, United Kingdom

12:37 AM BST on March 27, 2017 (GMT +0100)
Northolt Air Base

Weather History for EGWU - February, 2014

Change the Weather History Date:

Saturday, February 15, 2014

  Actual Average Record
Temperature  
Mean Temperature 46 °F -  
Max Temperature 52 °F 48 °F 60 °F (1998)
Min Temperature 41 °F 37 °F 28 °F (2002)
Degree Days  
Heating Degree Days 18    
Moisture  
Dew Point 35 °F    
Average Humidity 59    
Maximum Humidity 81    
Minimum Humidity 40    
Precipitation  
Precipitation 0.02 in - - ()
Sea Level Pressure  
Sea Level Pressure 29.20 in    
Wind  
Wind Speed 23 mph ()    
Max Wind Speed 32 mph    
Max Gust Speed 50 mph    
Visibility 7.8 miles    
Events Rain    
Averages and records for this station are not official NWS values.
T = Trace of Precipitation, MM = Missing Value Source: Averaged Metar Reports

Daily Weather History Graph

Daily Weather History Graph

Search for Another Location

Airport or City:

Trip Planner

Search our weather history database for the weather conditions in past years. The results will help you decide how hot, cold, wet, or windy it might be!

Date:

Astronomy

Feb. 15, 2014 Rise Set
Actual Time 7:15 AM GMT 5:16 PM GMT
Civil Twilight 6:41 AM GMT 5:51 PM GMT
Nautical Twilight 6:02 AM GMT 6:30 PM GMT
Astronomical Twilight 5:23 AM GMT 7:08 PM GMT
Moon 6:13 PM GMT (2/15) 6:58 AM GMT (2/15)
Length of Visible Light 11h 09m
Length of Day
10h 00m
Full, 100% of the Moon is Illuminated
Feb 15
Full
Feb 22
Last Quarter
Mar 1
New
Mar 8
First Quarter
Mar 16
Full

Hourly Weather History & Observations

Time (GMT) Temp. Windchill Dew Point Humidity Pressure Visibility Wind Dir Wind Speed Gust Speed Precip Events Conditions
12:00 AM 49 °F - 36 °F 50% 28.84 in 14 mi SW 32.2 mph - -   Mostly Cloudy
12:50 AM 48.2 °F - 33.8 °F 58% 28.85 in 6.2 mi SW 29.9 mph 44.9 mph N/A   Mostly Cloudy
1:00 AM 48 °F - 34 °F 48% 28.88 in 18 mi SW 29.9 mph - -   Mostly Cloudy
1:50 AM 48.2 °F - 35.6 °F 62% 28.88 in 6.2 mi SW 26.5 mph 49.5 mph N/A   Scattered Clouds
2:00 AM 48 °F - 35 °F 50% 28.90 in 18 mi SW 26.5 mph - -   Scattered Clouds
2:50 AM 48.2 °F - 35.6 °F 62% 28.91 in 6.2 mi SW 28.8 mph 40.3 mph N/A   Mostly Cloudy
3:00 AM 47 °F - 36 °F 54% 28.92 in 19 mi SW 28.8 mph - -   Scattered Clouds
3:50 AM 48.2 °F - 33.8 °F 58% 28.94 in 6.2 mi WSW 27.6 mph 43.7 mph N/A   Scattered Clouds
4:00 AM 48 °F - 34 °F 46% 28.95 in 22 mi WSW 27.6 mph - -   Mostly Cloudy
4:50 AM 48.2 °F - 35.6 °F 62% 28.97 in 6.2 mi WSW 27.6 mph 43.7 mph N/A   Mostly Cloudy
5:00 AM 47 °F - 35 °F 51% 28.98 in 22 mi WSW 27.6 mph - -   Scattered Clouds
5:50 AM 48.2 °F - 33.8 °F 58% 29.00 in 6.2 mi WSW 21.9 mph 34.5 mph N/A   Mostly Cloudy
6:00 AM 47 °F - 34 °F 49% 29.00 in 25 mi WSW 21.9 mph - -   Scattered Clouds
6:50 AM 48.2 °F - 33.8 °F 58% 29.00 in 6.2 mi WSW 26.5 mph 41.4 mph N/A   Mostly Cloudy
7:00 AM 47 °F - 34 °F 49% 29.03 in 25 mi WSW 26.5 mph - -   Mostly Cloudy
7:50 AM 48.2 °F - 33.8 °F 58% 29.06 in 6.2 mi SW 26.5 mph 49.5 mph N/A   Mostly Cloudy
8:00 AM 48 °F - 33 °F 45% 29.08 in 31 mi SW 26.5 mph - - Rain Light Rain Showers
8:50 AM 48.2 °F - 33.8 °F 58% 29.12 in 6.2 mi WSW 27.6 mph 41.4 mph N/A   Mostly Cloudy
9:00 AM 48 °F - 34 °F 47% 29.12 in 25 mi WSW 27.6 mph - -   Partly Cloudy
9:50 AM 48.2 °F - 33.8 °F 58% 29.12 in 6.2 mi WSW 31.1 mph 44.9 mph N/A   Scattered Clouds
10:00 AM 49 °F - 34 °F 45% 29.14 in 22 mi WSW 31.1 mph - -   Mostly Cloudy
10:50 AM 50.0 °F - 33.8 °F 54% 29.15 in 6.2 mi WSW 29.9 mph 46.0 mph N/A   Scattered Clouds
11:00 AM 49 °F - 35 °F 46% 29.16 in 25 mi WSW 29.9 mph - -   Mostly Cloudy
11:50 AM 50.0 °F - 33.8 °F 54% 29.18 in 6.2 mi WSW 24.2 mph 39.1 mph N/A   Scattered Clouds
12:00 PM 50 °F - 35 °F 43% 29.19 in 25 mi WSW 24.2 mph - - Rain Light Rain Showers
12:50 PM 50.0 °F - 37.4 °F 62% 29.21 in 6.2 mi WSW 21.9 mph 33.4 mph N/A   Partly Cloudy
1:00 PM 49 °F - 37 °F 52% 29.21 in 31 mi WSW 21.9 mph - - Rain Light Rain Showers
1:50 PM 51.8 °F - 33.8 °F 50% 29.21 in 6.2 mi WSW 26.5 mph 40.3 mph N/A   Scattered Clouds
2:00 PM 51 °F - 34 °F 40% 29.22 in 31 mi WSW 26.5 mph - -   Partly Cloudy
2:50 PM 48.2 °F - 37.4 °F 66% 29.24 in 6.2 mi WSW 21.9 mph 35.7 mph N/A   Scattered Clouds
3:00 PM 48 °F - 36 °F 54% 29.26 in 31 mi WSW 21.9 mph - - Rain Light Rain Showers
3:50 PM 48.2 °F - 35.6 °F 62% 29.30 in 6.2 mi West 23.0 mph 35.7 mph N/A   Scattered Clouds
4:00 PM 47 °F - 36 °F 56% 29.31 in 31 mi West 23.0 mph - -   Partly Cloudy
4:50 PM 46.4 °F 39.8 °F 35.6 °F 66% 29.33 in 6.2 mi WSW 16.1 mph - N/A   Scattered Clouds
5:00 PM 47 °F - 36 °F 56% 29.35 in 31 mi WSW 16.1 mph - -   Partly Cloudy
5:50 PM 46.4 °F 40.1 °F 37.4 °F 71% 29.39 in 6.2 mi WSW 15.0 mph - N/A   Scattered Clouds
6:00 PM 46 °F - 37 °F 60% 29.40 in 31 mi WSW 15.0 mph - -   Partly Cloudy
6:50 PM 44.6 °F 37.8 °F 35.6 °F 71% 29.42 in 6.2 mi West 15.0 mph - N/A   Scattered Clouds
7:00 PM 45 °F - 36 °F 62% 29.44 in 31 mi West 15.0 mph - -   Partly Cloudy
7:50 PM 44.6 °F 38.4 °F 37.4 °F 76% 29.44 in 6.2 mi West 12.7 mph - N/A   Partly Cloudy
8:00 PM 44 °F - 36 °F 66% 29.47 in 31 mi West 12.7 mph - -   Scattered Clouds
8:50 PM 42.8 °F 36.6 °F 37.4 °F 81% 29.50 in 6.2 mi West 11.5 mph - N/A   Unknown
9:00 PM 43 °F - 36 °F 70% 29.51 in 25 mi West 11.5 mph - -  
9:50 PM 42.8 °F 37.5 °F 37.4 °F 81% 29.53 in 6.2 mi West 9.2 mph - N/A   Mostly Cloudy
10:00 PM 42 °F - 36 °F 74% 29.54 in 25 mi West 9.2 mph - -   Mostly Cloudy
10:50 PM 41.0 °F 34.7 °F 35.6 °F 81% 29.56 in 6.2 mi WSW 10.4 mph - N/A   Partly Cloudy
11:00 PM 41 °F - 36 °F 76% 29.57 in 25 mi WSW 10.4 mph - -   Scattered Clouds
11:50 PM 41.0 °F 35.2 °F 35.6 °F 81% 29.59 in 6.2 mi WSW 9.2 mph - N/A   Unknown